"Pseudo-MPEC" for C15HHV2

Created 2019 Oct 11 21:07:09 UT using Find_Orb

Click here for an explanation of pseudo-MPECs

 
 Astrometry: 
     C15HHV2  C2019 10 10.14006 22 13 51.89 +39 54 29.2    ~AA4M 21.3 GVNEOCPG96
     C15HHV2  C2019 10 10.14509 22 13 52.05 +39 54 20.5    ~AA4M 20.8 GVNEOCPG96
     C15HHV2  C2019 10 10.15009 22 13 52.22 +39 54 10.9    ~AA4M 21.3 GVNEOCPG96
     C15HHV2  C2019 10 10.15507 22 13 52.37 +39 54 02.0    ~AA4M 20.6 GVNEOCPG96
     C15HHV2  C2019 10 10.24267 22 13 55.26 +39 51 18.0    ~AA6M       VNEOCPI52
     C15HHV2  C2019 10 10.24516 22 13 55.44 +39 51 14.4    ~AA6M 21.3 GVNEOCPI52
     C15HHV2  C2019 10 10.24766 22 13 55.52 +39 51 07.9    ~AA6M       VNEOCPI52
     C15HHV2  C2019 10 10.35629 22 13 59.31 +39 47 46.8    ~AA9M       VNEOCPI52
     C15HHV2  C2019 10 10.35878 22 13 59.40 +39 47 40.6    ~AA9M       VNEOCPI52
     C15HHV2  C2019 10 11.08647 22 14 28.23 +39 25 11.9    ~AB2q 20.7 GVNEOCPI52
     C15HHV2  C2019 10 11.09579 22 14 28.60 +39 24 55.0    ~AB2q       VNEOCPI52
     C15HHV2  C2019 10 11.10049 22 14 28.70 +39 24 45.7    ~AB2q 20.4 GVNEOCPI52
     C15HHV2 KC2019 10 11B/'hAstrometryQh*mW4tJT\Ol0jqdu-W8q*xBu+'cY+,LbtC6DwL01
     C15HHV2 KC2019 10 11MNC]n!9VXQM*I%Uredacted;DBW#N=)j7[5#.cFE(oFuK$MxA1!7L01
     C15HHV2 KC2019 10 11j0[2A8:click^v+ufeZNNZs0O?,w3RrD.04E:^;x4FN6f9hereJ:L01
     C15HHV2 KC2019 10 11A+3RforZ,85)KgoO2]nW]boR`)Rhtexplanation[x2#)E/QGS[rL01

Station data:
(G96) Mt. Lemmon Survey  (N32.442754 W110.788720)  US/Arizona.  Observers T.
   A. Pruyne, B. M. Africano, E. J. Christensen, G. A. Farneth, D. C. Fuls,
   A. R. Gibbs, A. D. Grauer, H. Groeller, J. A. Johnson, R. A. Kowalski, S.
   M. Larson, G. J. Leonard, D. Rankin, R. L. Seaman, F. C. Shelly. 1.5-m
   reflector + 10K CCD.
(I52) Steward Observatory, Mt. Lemmon Station  (N32.442547 W110.788920)
   US/Arizona.  Observers T. A. Pruyne, B. M. Africano, E. J. Christensen, G.
   A. Farneth, D. C. Fuls, A. R. Gibbs, A. D. Grauer, H. Groeller, J. A.
   Johnson, R. A. Kowalski, S. M. Larson, G. J. Leonard, D. Rankin, R. L.
   Seaman, F. C. Shelly. 1.0-m reflector + CCD.
(L01) Višnjan Observatory, Tičan  (N45.290900 E13.749300)  Croatia.
   Observers K. Korlević, E. Pettarin. Measurer E. Pettarin. 1.0-m f/2.9
   reflector + CCD.

Orbital elements:  C15HHV2
   Perihelion 2019 May 27.243918 +/- 8.28 TT =  5:51:14 (JD 2458630.743918)
Epoch 2019 Oct 11.0 TT = JDT 2458767.5   Earth MOID: 0.7809   AutoNEOCP
M  35.80705841 +/- 5.8              (J2000 ecliptic)
n   0.26183156 +/- 0.0299           Peri.   66.86849 +/- 9
a   2.41984781 +/- 0.184            Node   227.12753 +/- 2.4
e   0.3338457 +/- 0.0263            Incl.   35.71489 +/- 1.9
P   3.76                   H 18.5   G  0.15   U 10.4  
q 1.61199191 +/- 0.0875    Q 3.22770370 +/- 0.28
From 16 observations 2019 Oct. 10-11 (40.1 hr); mean residual 0".52
Residuals in arcseconds: 
191010 G96  .16+  .01-    191010 I52  .08+  1.6-    191011 L01  .05+  .39-    
191010 G96  .05+  .58+    191010 I52  .01-  .73+    191011 L01  .10-  .69-    
191010 G96  .07+  .22+    191010 I52  .01-  .79-    191011 L01  .35-  .75+    
191010 G96  .14-  .52+    191011 I52  .38+  .27+    191011 L01  .04-  .10+    
191010 I52  .95-  .83-    191011 I52  .77+  .56+    
191010 I52  .15+  .22+    191011 I52  .02-  .07-    

Ephemerides (geocentric):
Date (UTC) HH   RA              Dec         delta   r     elong  mag " sig PA
---- -- -- --  -------------   -----------  ------ ------ -----  --- ---- ---
2019 10 11 21  22 14 59.269   +39 00 44.18  1.1086 1.9101 130.0 21.3 .094  77
2019 10 11 22  22 15 00.959   +38 59 26.58  1.1088 1.9102 130.0 21.3 .129  77
2019 10 11 23  22 15 02.653   +38 58 08.97  1.1090 1.9104 130.0 21.3 .165  77
2019 10 12 00  22 15 04.351   +38 56 51.36  1.1092 1.9105 130.0 21.3 .204  77
2019 10 12 01  22 15 06.051   +38 55 33.74  1.1094 1.9107 130.0 21.3 .244  77
2019 10 12 02  22 15 07.755   +38 54 16.12  1.1095 1.9108 130.0 21.3 .285  77
2019 10 12 03  22 15 09.461   +38 52 58.49  1.1097 1.9110 130.0 21.3 .328  76
2019 10 12 04  22 15 11.171   +38 51 40.86  1.1099 1.9111 130.0 21.3 .373  76
2019 10 12 05  22 15 12.884   +38 50 23.22  1.1101 1.9113 130.0 21.3 .420  76
2019 10 12 06  22 15 14.600   +38 49 05.57  1.1102 1.9114 130.0 21.3 .468  76
2019 10 12 07  22 15 16.320   +38 47 47.92  1.1104 1.9116 130.0 21.3 .518  76
2019 10 12 08  22 15 18.042   +38 46 30.26  1.1106 1.9117 130.0 21.3 .569  76
2019 10 12 09  22 15 19.768   +38 45 12.60  1.1108 1.9119 130.0 21.3 .622  76
2019 10 12 10  22 15 21.497   +38 43 54.93  1.1110 1.9120 130.0 21.3 .677  76
2019 10 12 11  22 15 23.229   +38 42 37.26  1.1111 1.9122 130.0 21.3 .733  76
2019 10 12 12  22 15 24.964   +38 41 19.58  1.1113 1.9123 130.0 21.3 .791  76
2019 10 12 13  22 15 26.702   +38 40 01.90  1.1115 1.9125 130.0 21.3 .851  76
2019 10 12 14  22 15 28.443   +38 38 44.21  1.1117 1.9126 130.0 21.3 .912  76
2019 10 12 15  22 15 30.188   +38 37 26.52  1.1119 1.9128 130.0 21.3 .975  76
2019 10 12 16  22 15 31.935   +38 36 08.82  1.1121 1.9129 130.0 21.3 1.04  76
2019 10 12 17  22 15 33.686   +38 34 51.12  1.1122 1.9131 130.0 21.3 1.11  76
2019 10 12 18  22 15 35.440   +38 33 33.41  1.1124 1.9132 130.0 21.3 1.17  76
2019 10 12 19  22 15 37.197   +38 32 15.70  1.1126 1.9134 130.0 21.3 1.24  76
2019 10 12 20  22 15 38.957   +38 30 57.99  1.1128 1.9135 130.0 21.3 1.31  76
2019 10 12 21  22 15 40.720   +38 29 40.27  1.1130 1.9137 130.0 21.3 1.39  76
2019 10 12 22  22 15 42.486   +38 28 22.55  1.1132 1.9138 130.0 21.3 1.46  76
2019 10 12 23  22 15 44.256   +38 27 04.82  1.1133 1.9140 130.0 21.3 1.54  76
2019 10 13 00  22 15 46.028   +38 25 47.09  1.1135 1.9141 130.0 21.3 1.62  76
2019 10 13 01  22 15 47.804   +38 24 29.36  1.1137 1.9143 130.0 21.3 1.70  76
2019 10 13 02  22 15 49.583   +38 23 11.62  1.1139 1.9145 130.0 21.3 1.78  76
2019 10 13 03  22 15 51.365   +38 21 53.88  1.1141 1.9146 130.0 21.3 1.86  76
2019 10 13 04  22 15 53.149   +38 20 36.13  1.1143 1.9148 130.0 21.3 1.94  76
2019 10 13 05  22 15 54.937   +38 19 18.38  1.1145 1.9149 130.0 21.3 2.03  76
2019 10 13 06  22 15 56.728   +38 18 00.63  1.1146 1.9151 130.0 21.3 2.12  76
2019 10 13 07  22 15 58.523   +38 16 42.88  1.1148 1.9152 130.0 21.3 2.21  76
2019 10 13 08  22 16 00.320   +38 15 25.12  1.1150 1.9154 130.0 21.3 2.30  76
2019 10 13 09  22 16 02.120   +38 14 07.36  1.1152 1.9155 130.0 21.3 2.39  76
2019 10 13 10  22 16 03.924   +38 12 49.60  1.1154 1.9157 130.0 21.3 2.48  76
2019 10 13 11  22 16 05.730   +38 11 31.83  1.1156 1.9158 130.0 21.3 2.58  76
2019 10 13 12  22 16 07.540   +38 10 14.06  1.1158 1.9160 130.0 21.3 2.68  76
2019 10 13 13  22 16 09.352   +38 08 56.29  1.1160 1.9161 130.0 21.3 2.78  76
2019 10 13 14  22 16 11.168   +38 07 38.52  1.1162 1.9163 130.0 21.3 2.88  76
2019 10 13 15  22 16 12.987   +38 06 20.74  1.1164 1.9164 130.0 21.3 2.98  76
2019 10 13 16  22 16 14.809   +38 05 02.97  1.1165 1.9166 130.0 21.3 3.08  76
2019 10 13 17  22 16 16.633   +38 03 45.19  1.1167 1.9167 130.0 21.3 3.19  76
2019 10 13 18  22 16 18.461   +38 02 27.41  1.1169 1.9169 130.0 21.3 3.30  76
2019 10 13 19  22 16 20.292   +38 01 09.62  1.1171 1.9170 130.0 21.3 3.40  76
2019 10 13 20  22 16 22.126   +37 59 51.84  1.1173 1.9172 130.0 21.3 3.51  76